Time,TemperatureF,DewpointF,PressureIn,WindDirection,WindDirectionDegrees,WindSpeedMPH,WindSpeedGustMPH,Humidity,HourlyPrecipIn,Conditions,Clouds,dailyrainin,SoftwareType,DateUTC
2013-01-26 00:00:00,19.7,9.2,30.27,NW,314,5.0,6.0,63,0.00,,---,0.00,VWS V14.01,2013-01-26 06:00:00,
2013-01-26 00:05:00,19.6,9.4,30.27,NW,323,5.0,10.0,64,0.00,,---,0.00,VWS V14.01,2013-01-26 06:05:00,
2013-01-26 00:10:00,19.3,11.1,30.27,NW,312,4.0,10.0,70,0.00,,---,0.00,VWS V14.01,2013-01-26 06:10:00,
2013-01-26 00:15:00,19.2,9.0,30.27,NW,315,5.0,10.0,64,0.00,,---,0.00,VWS V14.01,2013-01-26 06:15:00,
2013-01-26 00:20:00,19.1,9.3,30.27,NNW,327,8.0,12.0,65,0.00,,---,0.00,VWS V14.01,2013-01-26 06:20:00,
2013-01-26 00:25:00,19.0,9.2,30.28,NNW,327,5.0,12.0,65,0.00,,---,0.00,VWS V14.01,2013-01-26 06:25:00,
2013-01-26 00:30:00,18.8,9.0,30.28,NW,316,8.0,10.0,65,0.00,,---,0.00,VWS V14.01,2013-01-26 06:30:00,
2013-01-26 00:35:00,18.8,9.0,30.28,NNW,329,5.0,11.0,65,0.00,,---,0.00,VWS V14.01,2013-01-26 06:35:00,
2013-01-26 00:40:00,18.6,9.1,30.28,NW,317,6.0,11.0,66,0.00,,---,0.00,VWS V14.01,2013-01-26 06:40:00,
2013-01-26 00:45:00,18.4,9.0,30.28,NW,323,6.0,11.0,66,0.00,,---,0.00,VWS V14.01,2013-01-26 06:45:00,
2013-01-26 00:50:00,18.3,8.9,30.28,NW,311,7.0,11.0,66,0.00,,---,0.00,VWS V14.01,2013-01-26 06:50:00,
2013-01-26 00:55:00,18.2,8.8,30.28,WNW,302,6.0,11.0,66,0.00,,---,0.00,VWS V14.01,2013-01-26 06:55:00,
2013-01-26 01:00:00,18.1,8.7,30.28,NNW,343,2.0,6.0,66,0.00,,---,0.00,VWS V14.01,2013-01-26 07:00:00,
2013-01-26 01:05:00,18.0,8.6,30.28,NW,315,2.0,7.0,66,0.00,,---,0.00,VWS V14.01,2013-01-26 07:05:00,
2013-01-26 01:10:00,17.9,8.8,30.28,NW,321,5.0,8.0,67,0.00,,---,0.00,VWS V14.01,2013-01-26 07:10:00,
2013-01-26 01:15:00,17.8,8.7,30.28,NW,312,5.0,8.0,67,0.00,,---,0.00,VWS V14.01,2013-01-26 07:15:00,
2013-01-26 01:20:00,17.6,8.5,30.28,NW,309,4.0,8.0,67,0.00,,---,0.00,VWS V14.01,2013-01-26 07:20:00,
2013-01-26 01:25:00,17.5,8.8,30.28,North,355,7.0,8.0,68,0.00,,---,0.00,VWS V14.01,2013-01-26 07:25:00,
2013-01-26 01:30:00,17.3,8.6,30.28,NW,314,5.0,6.0,68,0.00,,---,0.00,VWS V14.01,2013-01-26 07:30:00,
2013-01-26 01:35:00,17.2,8.5,30.28,West,276,5.0,7.0,68,0.00,,---,0.00,VWS V14.01,2013-01-26 07:35:00,
2013-01-26 01:40:00,17.0,8.3,30.29,West,281,7.0,7.0,68,0.00,,---,0.00,VWS V14.01,2013-01-26 07:40:00,
2013-01-26 01:45:00,16.9,8.5,30.29,NW,313,0.0,7.0,69,0.00,,---,0.00,VWS V14.01,2013-01-26 07:45:00,
2013-01-26 01:50:00,16.8,8.4,30.29,WNW,288,7.0,9.0,69,0.00,,---,0.00,VWS V14.01,2013-01-26 07:50:00,
2013-01-26 01:55:00,16.6,8.5,30.29,NW,323,6.0,9.0,70,0.00,,---,0.00,VWS V14.01,2013-01-26 07:55:00,
2013-01-26 02:00:00,16.5,8.4,30.29,WNW,300,5.0,6.0,70,0.00,,---,0.00,VWS V14.01,2013-01-26 08:00:00,
2013-01-26 02:05:00,16.3,8.2,30.29,NW,308,2.0,8.0,70,0.00,,---,0.00,VWS V14.01,2013-01-26 08:05:00,
2013-01-26 02:10:00,16.2,8.1,30.30,NNW,327,4.0,8.0,70,0.00,,---,0.00,VWS V14.01,2013-01-26 08:10:00,
2013-01-26 02:15:00,16.2,8.5,30.29,NW,323,4.0,8.0,71,0.00,,---,0.00,VWS V14.01,2013-01-26 08:15:00,
2013-01-26 02:20:00,16.1,8.4,30.29,NW,313,4.0,8.0,71,0.00,,---,0.00,VWS V14.01,2013-01-26 08:20:00,
2013-01-26 02:25:00,15.9,8.5,30.29,NW,318,5.0,8.0,72,0.00,,---,0.00,VWS V14.01,2013-01-26 08:25:00,
2013-01-26 02:30:00,15.8,8.4,30.29,NW,314,5.0,6.0,72,0.00,,---,0.00,VWS V14.01,2013-01-26 08:30:00,
2013-01-26 02:35:00,15.6,8.2,30.30,NW,314,2.0,6.0,72,0.00,,---,0.00,VWS V14.01,2013-01-26 08:35:00,
2013-01-26 02:40:00,15.5,8.1,30.30,NW,315,3.0,7.0,72,0.00,,---,0.00,VWS V14.01,2013-01-26 08:40:00,
2013-01-26 02:45:00,15.4,8.3,30.30,NW,312,4.0,7.0,73,0.00,,---,0.00,VWS V14.01,2013-01-26 08:45:00,
2013-01-26 02:50:00,15.3,8.2,30.30,NW,307,3.0,7.0,73,0.00,,---,0.00,VWS V14.01,2013-01-26 08:50:00,
2013-01-26 02:55:00,15.2,8.1,30.30,NW,306,3.0,7.0,73,0.00,,---,0.00,VWS V14.01,2013-01-26 08:55:00,
2013-01-26 03:00:00,15.1,8.0,30.31,NW,314,3.0,4.0,73,0.00,,---,0.00,VWS V14.01,2013-01-26 09:00:00,
2013-01-26 03:05:00,15.0,8.2,30.31,WNW,302,4.0,8.0,74,0.00,,---,0.00,VWS V14.01,2013-01-26 09:05:00,
2013-01-26 03:10:00,14.9,8.1,30.31,North,360,5.0,8.0,74,0.00,,---,0.00,VWS V14.01,2013-01-26 09:10:00,
2013-01-26 03:15:00,14.8,8.0,30.31,NW,319,4.0,8.0,74,0.00,,---,0.00,VWS V14.01,2013-01-26 09:15:00,
2013-01-26 03:20:00,14.8,8.0,30.31,NW,315,4.0,8.0,74,0.00,,---,0.00,VWS V14.01,2013-01-26 09:20:00,
2013-01-26 03:25:00,14.6,8.1,30.31,North,355,4.0,8.0,75,0.00,,---,0.00,VWS V14.01,2013-01-26 09:25:00,
2013-01-26 03:30:00,14.6,8.1,30.31,WNW,300,3.0,8.0,75,0.00,,---,0.00,VWS V14.01,2013-01-26 09:30:00,
2013-01-26 03:35:00,14.5,8.0,30.30,NNW,340,2.0,8.0,75,0.00,,---,0.00,VWS V14.01,2013-01-26 09:35:00,
2013-01-26 03:40:00,14.4,7.9,30.31,NNW,331,7.0,8.0,75,0.00,,---,0.00,VWS V14.01,2013-01-26 09:40:00,
2013-01-26 03:45:00,14.3,7.8,30.31,WNW,285,4.0,8.0,75,0.00,,---,0.00,VWS V14.01,2013-01-26 09:45:00,
2013-01-26 03:50:00,14.2,8.0,30.32,WNW,290,4.0,8.0,76,0.00,,---,0.00,VWS V14.01,2013-01-26 09:50:00,
2013-01-26 03:55:00,14.1,7.9,30.33,WNW,292,3.0,8.0,76,0.00,,---,0.00,VWS V14.01,2013-01-26 09:55:00,
2013-01-26 04:00:00,13.9,7.8,30.33,WNW,289,4.0,4.0,76,0.00,,---,0.00,VWS V14.01,2013-01-26 10:00:00,
2013-01-26 04:05:00,13.8,7.9,30.33,NW,305,1.0,6.0,77,0.00,,---,0.00,VWS V14.01,2013-01-26 10:05:00,
2013-01-26 04:10:00,13.7,7.8,30.33,WNW,298,2.0,8.0,77,0.00,,---,0.00,VWS V14.01,2013-01-26 10:10:00,
2013-01-26 04:15:00,13.6,7.7,30.33,WNW,288,1.0,8.0,77,0.00,,---,0.00,VWS V14.01,2013-01-26 10:15:00,
2013-01-26 04:20:00,13.6,7.7,30.34,WNW,303,5.0,8.0,77,0.00,,---,0.00,VWS V14.01,2013-01-26 10:20:00,
2013-01-26 04:25:00,13.6,7.7,30.34,WNW,284,4.0,8.0,77,0.00,,---,0.00,VWS V14.01,2013-01-26 10:25:00,
2013-01-26 04:30:00,13.6,7.7,30.34,WNW,286,4.0,5.0,77,0.00,,---,0.00,VWS V14.01,2013-01-26 10:30:00,
2013-01-26 04:35:00,13.5,7.7,30.35,WNW,286,4.0,6.0,77,0.00,,---,0.00,VWS V14.01,2013-01-26 10:35:00,
2013-01-26 04:40:00,13.4,7.6,30.35,WNW,288,3.0,6.0,77,0.00,,---,0.00,VWS V14.01,2013-01-26 10:40:00,
2013-01-26 04:45:00,13.3,7.4,30.35,WNW,290,5.0,6.0,77,0.00,,---,0.00,VWS V14.01,2013-01-26 10:45:00,
2013-01-26 04:50:00,13.2,7.3,30.35,WNW,296,1.0,6.0,77,0.00,,---,0.00,VWS V14.01,2013-01-26 10:50:00,
2013-01-26 04:55:00,13.1,7.3,30.35,WNW,291,5.0,6.0,77,0.00,,---,0.00,VWS V14.01,2013-01-26 10:55:00,
2013-01-26 05:00:00,13.0,7.4,30.35,WNW,292,5.0,5.0,78,0.00,,---,0.00,VWS V14.01,2013-01-26 11:00:00,
2013-01-26 05:05:00,13.0,7.4,30.35,WNW,286,4.0,7.0,78,0.00,,---,0.00,VWS V14.01,2013-01-26 11:05:00,
2013-01-26 05:10:00,13.0,7.4,30.35,NNW,335,1.0,7.0,78,0.00,,---,0.00,VWS V14.01,2013-01-26 11:10:00,
2013-01-26 05:15:00,12.9,7.3,30.36,WNW,302,3.0,7.0,78,0.00,,---,0.00,VWS V14.01,2013-01-26 11:15:00,
2013-01-26 05:20:00,12.9,7.3,30.36,WNW,298,1.0,7.0,78,0.00,,---,0.00,VWS V14.01,2013-01-26 11:20:00,
2013-01-26 05:25:00,12.7,7.2,30.36,WNW,295,2.0,7.0,78,0.00,,---,0.00,VWS V14.01,2013-01-26 11:25:00,
2013-01-26 05:30:00,12.5,7.0,30.36,WNW,296,2.0,4.0,78,0.00,,---,0.00,VWS V14.01,2013-01-26 11:30:00,
2013-01-26 05:35:00,12.4,6.9,30.36,WNW,296,2.0,5.0,78,0.00,,---,0.00,VWS V14.01,2013-01-26 11:35:00,
2013-01-26 05:40:00,12.2,6.9,30.37,WNW,296,2.0,5.0,79,0.00,,---,0.00,VWS V14.01,2013-01-26 11:40:00,
2013-01-26 05:45:00,12.1,6.8,30.37,WNW,296,1.0,5.0,79,0.00,,---,0.00,VWS V14.01,2013-01-26 11:45:00,
2013-01-26 05:50:00,12.0,6.8,30.37,WNW,296,1.0,5.0,79,0.00,,---,0.00,VWS V14.01,2013-01-26 11:50:00,
2013-01-26 05:55:00,11.9,6.7,30.37,WNW,296,2.0,5.0,79,0.00,,---,0.00,VWS V14.01,2013-01-26 11:55:00,
2013-01-26 06:00:00,11.8,6.8,30.37,WNW,296,4.0,4.0,80,0.00,,---,0.00,VWS V14.01,2013-01-26 12:00:00,
2013-01-26 06:05:00,11.8,6.8,30.37,WNW,296,2.0,5.0,80,0.00,,---,0.00,VWS V14.01,2013-01-26 12:05:00,
2013-01-26 06:10:00,11.8,6.8,30.37,NW,315,1.0,5.0,80,0.00,,---,0.00,VWS V14.01,2013-01-26 12:10:00,
2013-01-26 06:15:00,11.8,6.8,30.37,NW,315,2.0,5.0,80,0.00,,---,0.00,VWS V14.01,2013-01-26 12:15:00,
2013-01-26 06:20:00,11.7,6.7,30.37,NW,315,5.0,5.0,80,0.00,,---,0.00,VWS V14.01,2013-01-26 12:20:00,
2013-01-26 06:25:00,11.6,6.6,30.37,NW,315,0.0,5.0,80,0.00,,---,0.00,VWS V14.01,2013-01-26 12:25:00,
2013-01-26 06:30:00,11.6,6.6,30.38,NW,315,1.0,2.0,80,0.00,,---,0.00,VWS V14.01,2013-01-26 12:30:00,
2013-01-26 06:35:00,11.3,6.3,30.38,NW,315,2.0,2.0,80,0.00,,---,0.00,VWS V14.01,2013-01-26 12:35:00,
2013-01-26 06:40:00,11.1,6.4,30.38,NW,315,0.0,3.0,81,0.00,,---,0.00,VWS V14.01,2013-01-26 12:40:00,
2013-01-26 06:45:00,10.9,6.2,30.38,NW,315,2.0,3.0,81,0.00,,---,0.00,VWS V14.01,2013-01-26 12:45:00,
2013-01-26 06:50:00,10.8,6.1,30.38,NW,315,1.0,4.0,81,0.00,,---,0.00,VWS V14.01,2013-01-26 12:50:00,
2013-01-26 06:55:00,10.9,6.2,30.39,NW,315,2.0,4.0,81,0.00,,---,0.00,VWS V14.01,2013-01-26 12:55:00,
2013-01-26 07:00:00,10.9,6.2,30.39,NW,315,2.0,4.0,81,0.00,,---,0.00,VWS V14.01,2013-01-26 13:00:00,
2013-01-26 07:05:00,10.9,6.5,30.39,NW,315,2.0,4.0,82,0.00,,---,0.00,VWS V14.01,2013-01-26 13:05:00,
2013-01-26 07:10:00,10.8,6.1,30.38,NW,315,2.0,4.0,81,0.00,,---,0.00,VWS V14.01,2013-01-26 13:10:00,
2013-01-26 07:15:00,10.7,6.3,30.39,NW,315,2.0,4.0,82,0.00,,---,0.00,VWS V14.01,2013-01-26 13:15:00,
2013-01-26 07:20:00,10.7,6.3,30.39,NW,315,1.0,4.0,82,0.00,,---,0.00,VWS V14.01,2013-01-26 13:20:00,
2013-01-26 07:25:00,10.8,6.4,30.39,NW,315,0.0,4.0,82,0.00,,---,0.00,VWS V14.01,2013-01-26 13:25:00,
2013-01-26 07:30:00,10.9,6.5,30.39,NW,315,0.0,0.0,82,0.00,,---,0.00,VWS V14.01,2013-01-26 13:30:00,
2013-01-26 07:35:00,11.0,6.6,30.39,NW,315,0.0,0.0,82,0.00,,---,0.00,VWS V14.01,2013-01-26 13:35:00,
2013-01-26 07:40:00,11.0,6.6,30.39,NW,315,0.0,0.0,82,0.00,,---,0.00,VWS V14.01,2013-01-26 13:40:00,
2013-01-26 07:45:00,11.0,6.6,30.39,NW,315,0.0,2.0,82,0.00,,---,0.00,VWS V14.01,2013-01-26 13:45:00,
2013-01-26 07:50:00,11.1,6.7,30.40,NW,315,0.0,2.0,82,0.00,,---,0.00,VWS V14.01,2013-01-26 13:50:00,
2013-01-26 07:55:00,11.3,6.9,30.40,NW,315,1.0,2.0,82,0.00,,---,0.00,VWS V14.01,2013-01-26 13:55:00,
2013-01-26 08:00:00,11.6,7.2,30.40,North,360,1.0,2.0,82,0.00,,---,0.00,VWS V14.01,2013-01-26 14:00:00,
2013-01-26 08:05:00,11.9,7.5,30.40,North,360,1.0,3.0,82,0.00,,---,0.00,VWS V14.01,2013-01-26 14:05:00,
2013-01-26 08:10:00,12.2,7.8,30.40,North,360,3.0,5.0,82,0.00,,---,0.00,VWS V14.01,2013-01-26 14:10:00,
2013-01-26 08:15:00,12.6,7.9,30.41,NNW,344,2.0,7.0,81,0.00,,---,0.00,VWS V14.01,2013-01-26 14:15:00,
2013-01-26 08:20:00,12.8,7.8,30.41,North,360,5.0,7.0,80,0.00,,---,0.00,VWS V14.01,2013-01-26 14:20:00,
2013-01-26 08:25:00,13.1,8.1,30.41,NNE,15,3.0,7.0,80,0.00,,---,0.00,VWS V14.01,2013-01-26 14:25:00,
2013-01-26 08:30:00,13.3,8.0,30.41,NNE,15,4.0,7.0,79,0.00,,---,0.00,VWS V14.01,2013-01-26 14:30:00,
2013-01-26 08:35:00,13.5,8.2,30.41,North,9,3.0,7.0,79,0.00,,---,0.00,VWS V14.01,2013-01-26 14:35:00,
2013-01-26 08:40:00,13.7,8.1,30.42,North,11,10.0,11.0,78,0.00,,---,0.00,VWS V14.01,2013-01-26 14:40:00,
2013-01-26 08:45:00,14.0,8.7,30.42,North,9,7.0,11.0,79,0.00,,---,0.00,VWS V14.01,2013-01-26 14:45:00,
2013-01-26 08:50:00,14.4,8.8,30.42,North,11,4.0,11.0,78,0.00,,---,0.00,VWS V14.01,2013-01-26 14:50:00,
2013-01-26 08:55:00,14.9,9.0,30.42,North,11,3.0,11.0,77,0.00,,---,0.00,VWS V14.01,2013-01-26 14:55:00,
2013-01-26 09:00:00,15.3,9.1,30.42,NNE,25,4.0,5.0,76,0.00,,---,0.00,VWS V14.01,2013-01-26 15:00:00,
2013-01-26 09:05:00,15.6,9.1,30.42,NNE,19,3.0,7.0,75,0.00,,---,0.00,VWS V14.01,2013-01-26 15:05:00,
2013-01-26 09:10:00,15.9,9.4,30.42,NNE,22,2.0,7.0,75,0.00,,---,0.00,VWS V14.01,2013-01-26 15:10:00,
2013-01-26 09:15:00,16.2,9.4,30.42,NNE,16,1.0,7.0,74,0.00,,---,0.00,VWS V14.01,2013-01-26 15:15:00,
2013-01-26 09:20:00,16.7,9.9,30.42,North,11,6.0,8.0,74,0.00,,---,0.00,VWS V14.01,2013-01-26 15:20:00,
2013-01-26 09:25:00,17.0,9.9,30.42,ENE,59,2.0,8.0,73,0.00,,---,0.00,VWS V14.01,2013-01-26 15:25:00,
2013-01-26 09:30:00,17.5,10.3,30.42,ENE,58,0.0,4.0,73,0.00,,---,0.00,VWS V14.01,2013-01-26 15:30:00,
2013-01-26 09:35:00,18.0,10.5,30.42,North,11,4.0,7.0,72,0.00,,---,0.00,VWS V14.01,2013-01-26 15:35:00,
2013-01-26 09:40:00,18.4,10.6,30.43,North,350,1.0,7.0,71,0.00,,---,0.00,VWS V14.01,2013-01-26 15:40:00,
2013-01-26 09:45:00,18.5,10.4,30.43,ENE,61,5.0,7.0,70,0.00,,---,0.00,VWS V14.01,2013-01-26 15:45:00,
2013-01-26 09:50:00,18.8,11.0,30.43,ENE,61,2.0,7.0,71,0.00,,---,0.00,VWS V14.01,2013-01-26 15:50:00,
2013-01-26 09:55:00,19.5,11.3,30.43,East,93,4.0,7.0,70,0.00,,---,0.00,VWS V14.01,2013-01-26 15:55:00,
2013-01-26 10:00:00,19.9,11.4,30.44,East,93,0.0,0.0,69,0.00,,---,0.00,VWS V14.01,2013-01-26 16:00:00,
2013-01-26 10:05:00,20.4,11.9,30.44,East,101,2.0,4.0,69,0.00,,---,0.00,VWS V14.01,2013-01-26 16:05:00,
2013-01-26 10:10:00,21.2,11.6,30.44,ESE,119,0.0,5.0,66,0.00,,---,0.00,VWS V14.01,2013-01-26 16:10:00,
2013-01-26 10:15:00,21.2,11.3,30.44,ESE,117,1.0,5.0,65,0.00,,---,0.00,VWS V14.01,2013-01-26 16:15:00,
2013-01-26 10:20:00,21.3,11.4,30.44,ESE,117,0.0,5.0,65,0.00,,---,0.00,VWS V14.01,2013-01-26 16:20:00,
2013-01-26 10:25:00,21.3,11.4,30.44,ESE,117,0.0,5.0,65,0.00,,---,0.00,VWS V14.01,2013-01-26 16:25:00,
2013-01-26 10:30:00,22.1,12.5,30.44,ESE,118,3.0,4.0,66,0.00,,---,0.00,VWS V14.01,2013-01-26 16:30:00,
2013-01-26 10:35:00,22.7,12.4,30.45,ESE,118,0.0,5.0,64,0.00,,---,0.00,VWS V14.01,2013-01-26 16:35:00,
2013-01-26 10:40:00,22.7,12.0,30.44,SE,131,4.0,6.0,63,0.00,,---,0.00,VWS V14.01,2013-01-26 16:40:00,
2013-01-26 10:45:00,22.6,11.9,30.44,SE,131,0.0,6.0,63,0.00,,---,0.00,VWS V14.01,2013-01-26 16:45:00,
2013-01-26 10:50:00,22.8,12.5,30.44,SE,131,0.0,6.0,64,0.00,,---,0.00,VWS V14.01,2013-01-26 16:50:00,
2013-01-26 10:55:00,23.1,12.0,30.44,ESE,111,4.0,7.0,62,0.00,,---,0.00,VWS V14.01,2013-01-26 16:55:00,
2013-01-26 11:00:00,23.3,12.2,30.44,SE,128,5.0,5.0,62,0.00,,---,0.00,VWS V14.01,2013-01-26 17:00:00,
2013-01-26 11:05:00,23.2,11.8,30.44,SE,131,0.0,6.0,61,0.00,,---,0.00,VWS V14.01,2013-01-26 17:05:00,
2013-01-26 11:10:00,23.3,11.9,30.45,SE,131,0.0,6.0,61,0.00,,---,0.00,VWS V14.01,2013-01-26 17:10:00,
2013-01-26 11:15:00,23.6,11.8,30.45,NNE,32,0.0,6.0,60,0.00,,---,0.00,VWS V14.01,2013-01-26 17:15:00,
2013-01-26 11:20:00,23.8,12.3,30.44,ESE,107,1.0,6.0,61,0.00,,---,0.00,VWS V14.01,2013-01-26 17:20:00,
2013-01-26 11:25:00,24.0,12.1,30.45,ESE,119,2.0,6.0,60,0.00,,---,0.00,VWS V14.01,2013-01-26 17:25:00,
2013-01-26 11:30:00,24.1,12.2,30.44,SE,142,0.0,0.0,60,0.00,,---,0.00,VWS V14.01,2013-01-26 17:30:00,
2013-01-26 11:35:00,24.3,12.1,30.44,SE,142,0.0,4.0,59,0.00,,---,0.00,VWS V14.01,2013-01-26 17:35:00,
2013-01-26 11:40:00,24.1,11.9,30.45,SSW,205,1.0,6.0,59,0.00,,---,0.00,VWS V14.01,2013-01-26 17:40:00,
2013-01-26 11:45:00,24.3,12.1,30.44,SE,126,4.0,6.0,59,0.00,,---,0.00,VWS V14.01,2013-01-26 17:45:00,
2013-01-26 11:50:00,24.6,11.9,30.43,ENE,69,5.0,6.0,58,0.00,,---,0.00,VWS V14.01,2013-01-26 17:50:00,
2013-01-26 11:55:00,25.0,12.7,30.42,ESE,104,0.0,6.0,59,0.00,,---,0.00,VWS V14.01,2013-01-26 17:55:00,
2013-01-26 12:00:00,25.6,12.5,30.42,SSE,148,5.0,5.0,57,0.00,,---,0.00,VWS V14.01,2013-01-26 18:00:00,
2013-01-26 12:05:00,25.8,12.7,30.42,SSE,159,0.0,9.0,57,0.00,,---,0.00,VWS V14.01,2013-01-26 18:05:00,
2013-01-26 12:10:00,25.9,12.4,30.42,SSE,157,2.0,9.0,56,0.00,,---,0.00,VWS V14.01,2013-01-26 18:10:00,
2013-01-26 12:15:00,26.1,12.6,30.41,SSE,148,0.0,9.0,56,0.00,,---,0.00,VWS V14.01,2013-01-26 18:15:00,
2013-01-26 12:20:00,26.3,12.3,30.41,South,179,4.0,9.0,55,0.00,,---,0.00,VWS V14.01,2013-01-26 18:20:00,
2013-01-26 12:25:00,26.6,12.6,30.41,SSE,148,7.0,9.0,55,0.00,,---,0.00,VWS V14.01,2013-01-26 18:25:00,
2013-01-26 12:30:00,26.7,12.7,30.41,SSE,156,2.0,3.0,55,0.00,,---,0.00,VWS V14.01,2013-01-26 18:30:00,
2013-01-26 12:35:00,27.0,13.0,30.40,ESE,113,3.0,5.0,55,0.00,,---,0.00,VWS V14.01,2013-01-26 18:35:00,
2013-01-26 12:40:00,27.0,12.6,30.40,ESE,117,1.0,5.0,54,0.00,,---,0.00,VWS V14.01,2013-01-26 18:40:00,
2013-01-26 12:45:00,27.0,12.6,30.40,SSW,198,0.0,7.0,54,0.00,,---,0.00,VWS V14.01,2013-01-26 18:45:00,
2013-01-26 12:50:00,27.2,12.8,30.40,SE,128,1.0,7.0,54,0.00,,---,0.00,VWS V14.01,2013-01-26 18:50:00,
2013-01-26 12:55:00,27.6,13.1,30.40,SE,125,1.0,7.0,54,0.00,,---,0.00,VWS V14.01,2013-01-26 18:55:00,
2013-01-26 13:00:00,27.8,12.9,30.40,SE,125,0.0,0.0,53,0.00,,---,0.00,VWS V14.01,2013-01-26 19:00:00,
2013-01-26 13:05:00,27.9,12.6,30.39,SE,125,1.0,3.0,52,0.00,,---,0.00,VWS V14.01,2013-01-26 19:05:00,
2013-01-26 13:10:00,28.3,12.9,30.39,SE,126,4.0,7.0,52,0.00,,---,0.00,VWS V14.01,2013-01-26 19:10:00,
2013-01-26 13:15:00,28.4,12.6,30.39,SE,132,5.0,8.0,51,0.00,,---,0.00,VWS V14.01,2013-01-26 19:15:00,
2013-01-26 13:20:00,28.5,12.7,30.39,NE,56,4.0,8.0,51,0.00,,---,0.00,VWS V14.01,2013-01-26 19:20:00,
2013-01-26 13:25:00,28.7,12.9,30.39,NE,54,0.0,8.0,51,0.00,,---,0.00,VWS V14.01,2013-01-26 19:25:00,
2013-01-26 13:30:00,28.8,12.5,30.40,SSE,149,5.0,5.0,50,0.00,,---,0.00,VWS V14.01,2013-01-26 19:30:00,
2013-01-26 13:35:00,29.0,12.7,30.40,SSE,159,0.0,5.0,50,0.00,,---,0.00,VWS V14.01,2013-01-26 19:35:00,
2013-01-26 13:40:00,29.3,12.5,30.39,ESE,117,2.0,6.0,49,0.00,,---,0.00,VWS V14.01,2013-01-26 19:40:00,
2013-01-26 13:45:00,29.4,13.1,30.39,East,101,5.0,6.0,50,0.00,,---,0.00,VWS V14.01,2013-01-26 19:45:00,
2013-01-26 13:50:00,29.5,13.2,30.39,East,101,1.0,6.0,50,0.00,,---,0.00,VWS V14.01,2013-01-26 19:50:00,
2013-01-26 13:55:00,29.5,13.2,30.39,ESE,107,5.0,7.0,50,0.00,,---,0.00,VWS V14.01,2013-01-26 19:55:00,
2013-01-26 14:00:00,29.7,13.4,30.38,SE,132,0.0,2.0,50,0.00,,---,0.00,VWS V14.01,2013-01-26 20:00:00,
2013-01-26 14:05:00,29.9,13.5,30.39,SE,131,2.0,3.0,50,0.00,,---,0.00,VWS V14.01,2013-01-26 20:05:00,
2013-01-26 14:10:00,30.0,13.6,30.38,ESE,118,0.0,5.0,50,0.00,,---,0.00,VWS V14.01,2013-01-26 20:10:00,
2013-01-26 14:15:00,30.1,13.7,30.38,SE,134,1.0,6.0,50,0.00,,---,0.00,VWS V14.01,2013-01-26 20:15:00,
2013-01-26 14:20:00,30.0,13.6,30.38,South,171,0.0,6.0,50,0.00,,---,0.00,VWS V14.01,2013-01-26 20:20:00,
2013-01-26 14:25:00,30.1,13.7,30.38,South,171,0.0,6.0,50,0.00,,---,0.00,VWS V14.01,2013-01-26 20:25:00,
2013-01-26 14:29:00,30.1,13.3,30.38,South,171,0.0,0.0,49,0.00,,---,0.00,VWS V14.01,2013-01-26 20:29:00,
2013-01-26 14:30:00,30.7,13.8,30.38,ESE,113,2.0,8.0,49,0.00,,---,0.00,VWS V14.01,2013-01-26 20:30:00,
2013-01-26 14:34:00,30.2,13.4,30.39,South,171,0.0,5.0,49,0.00,,---,0.00,VWS V14.01,2013-01-26 20:34:00,
2013-01-26 14:39:00,30.2,13.8,30.38,South,184,0.0,7.0,50,0.00,,---,0.00,VWS V14.01,2013-01-26 20:39:00,
2013-01-26 14:44:00,30.6,13.7,30.38,SE,131,1.0,7.0,49,0.00,,---,0.00,VWS V14.01,2013-01-26 20:44:00,
2013-01-26 14:49:00,31.1,13.7,30.38,SSE,149,3.0,7.0,48,0.00,,---,0.00,VWS V14.01,2013-01-26 20:49:00,
2013-01-26 14:54:00,31.1,14.2,30.38,SE,130,4.0,8.0,49,0.00,,---,0.00,VWS V14.01,2013-01-26 20:54:00,
2013-01-26 14:59:00,31.0,14.1,30.38,East,100,5.0,5.0,49,0.00,,---,0.00,VWS V14.01,2013-01-26 20:59:00,
2013-01-26 15:00:00,30.6,13.7,30.38,SE,144,3.0,8.0,49,0.00,,---,0.00,VWS V14.01,2013-01-26 21:00:00,
2013-01-26 15:04:00,30.9,14.0,30.37,SE,124,0.0,7.0,49,0.00,,---,0.00,VWS V14.01,2013-01-26 21:04:00,
2013-01-26 15:09:00,31.0,14.1,30.37,SE,124,0.0,7.0,49,0.00,,---,0.00,VWS V14.01,2013-01-26 21:09:00,
2013-01-26 15:14:00,30.8,13.9,30.37,SSE,153,2.0,8.0,49,0.00,,---,0.00,VWS V14.01,2013-01-26 21:14:00,
2013-01-26 15:19:00,30.8,13.9,30.37,SSE,153,5.0,8.0,49,0.00,,---,0.00,VWS V14.01,2013-01-26 21:19:00,
2013-01-26 15:25:00,30.8,13.9,30.37,ESE,113,2.0,8.0,49,0.00,,---,0.00,VWS V14.01,2013-01-26 21:25:00,
2013-01-26 15:30:00,30.7,13.8,30.38,ESE,113,0.0,2.0,49,0.00,,---,0.00,VWS V14.01,2013-01-26 21:30:00,
2013-01-26 15:35:00,30.6,13.7,30.37,ESE,119,4.0,7.0,49,0.00,,---,0.00,VWS V14.01,2013-01-26 21:35:00,
2013-01-26 15:39:00,30.6,13.7,30.37,ESE,123,6.0,7.0,49,0.00,,---,0.00,VWS V14.01,2013-01-26 21:39:00,
2013-01-26 15:44:00,30.6,13.7,30.37,SE,145,0.0,8.0,49,0.00,,---,0.00,VWS V14.01,2013-01-26 21:44:00,
2013-01-26 15:49:00,30.6,13.7,30.37,SE,146,4.0,8.0,49,0.00,,---,0.00,VWS V14.01,2013-01-26 21:49:00,
2013-01-26 15:55:00,30.6,13.7,30.37,SE,146,0.0,8.0,49,0.00,,---,0.00,VWS V14.01,2013-01-26 21:55:00,
2013-01-26 16:00:00,30.6,13.7,30.38,South,182,2.0,5.0,49,0.00,,---,0.00,VWS V14.01,2013-01-26 22:00:00,
2013-01-26 16:04:00,30.5,13.6,30.38,SE,134,5.0,7.0,49,0.00,,---,0.00,VWS V14.01,2013-01-26 22:04:00,
2013-01-26 16:09:00,30.5,14.1,30.38,SE,144,5.0,7.0,50,0.00,,---,0.00,VWS V14.01,2013-01-26 22:09:00,
2013-01-26 16:14:00,30.4,14.0,30.38,SE,144,2.0,7.0,50,0.00,,---,0.00,VWS V14.01,2013-01-26 22:14:00,
2013-01-26 16:19:00,30.3,13.9,30.38,SE,144,1.0,7.0,50,0.00,,---,0.00,VWS V14.01,2013-01-26 22:19:00,
2013-01-26 16:24:00,30.2,13.8,30.39,SE,136,1.0,7.0,50,0.00,,---,0.00,VWS V14.01,2013-01-26 22:24:00,
2013-01-26 16:29:00,30.1,14.2,30.38,SE,136,0.0,4.0,51,0.00,,---,0.00,VWS V14.01,2013-01-26 22:29:00,
2013-01-26 16:30:00,27.8,14.6,30.36,SE,131,3.0,8.0,57,0.00,,---,0.00,VWS V14.01,2013-01-26 22:30:00,
2013-01-26 16:34:00,29.8,13.9,30.38,SE,136,1.0,4.0,51,0.00,,---,0.00,VWS V14.01,2013-01-26 22:34:00,
2013-01-26 16:39:00,29.6,14.1,30.38,SE,136,3.0,5.0,52,0.00,,---,0.00,VWS V14.01,2013-01-26 22:39:00,
2013-01-26 16:44:00,29.3,14.3,30.37,SE,135,4.0,5.0,53,0.00,,---,0.00,VWS V14.01,2013-01-26 22:44:00,
2013-01-26 16:49:00,29.1,14.5,30.37,SE,128,4.0,7.0,54,0.00,,---,0.00,VWS V14.01,2013-01-26 22:49:00,
2013-01-26 16:54:00,28.9,14.4,30.37,SE,129,3.0,7.0,54,0.00,,---,0.00,VWS V14.01,2013-01-26 22:54:00,
2013-01-26 16:59:00,28.8,14.3,30.37,ESE,123,4.0,6.0,54,0.00,,---,0.00,VWS V14.01,2013-01-26 22:59:00,
2013-01-26 17:00:00,27.2,14.0,30.37,ESE,123,4.0,8.0,57,0.00,,---,0.00,VWS V14.01,2013-01-26 23:00:00,
2013-01-26 17:04:00,28.7,14.2,30.37,SE,127,1.0,6.0,54,0.00,,---,0.00,VWS V14.01,2013-01-26 23:04:00,
2013-01-26 17:09:00,28.5,14.4,30.37,SE,128,0.0,6.0,55,0.00,,---,0.00,VWS V14.01,2013-01-26 23:09:00,
2013-01-26 17:14:00,28.4,14.3,30.37,SE,128,1.0,6.0,55,0.00,,---,0.00,VWS V14.01,2013-01-26 23:14:00,
2013-01-26 17:19:00,28.2,14.5,30.36,SE,128,5.0,6.0,56,0.00,,---,0.00,VWS V14.01,2013-01-26 23:19:00,
2013-01-26 17:24:00,28.0,14.8,30.35,SE,129,1.0,8.0,57,0.00,,---,0.00,VWS V14.01,2013-01-26 23:24:00,
2013-01-26 17:29:00,27.8,14.6,30.36,SE,130,4.0,5.0,57,0.00,,---,0.00,VWS V14.01,2013-01-26 23:29:00,
2013-01-26 17:30:00,25.7,14.1,30.37,ESE,123,0.0,4.0,61,0.00,,---,0.00,VWS V14.01,2013-01-26 23:30:00,
2013-01-26 17:34:00,27.7,14.5,30.36,SE,137,6.0,7.0,57,0.00,,---,0.00,VWS V14.01,2013-01-26 23:34:00,
2013-01-26 17:39:00,27.6,14.4,30.36,SE,126,4.0,8.0,57,0.00,,---,0.00,VWS V14.01,2013-01-26 23:39:00,
2013-01-26 17:44:00,27.5,14.3,30.36,SE,130,3.0,8.0,57,0.00,,---,0.00,VWS V14.01,2013-01-26 23:44:00,
2013-01-26 17:49:00,27.4,14.2,30.36,ESE,109,2.0,8.0,57,0.00,,---,0.00,VWS V14.01,2013-01-26 23:49:00,
2013-01-26 17:54:00,27.3,14.1,30.36,ESE,123,3.0,8.0,57,0.00,,---,0.00,VWS V14.01,2013-01-26 23:54:00,
2013-01-26 17:59:00,27.2,14.0,30.37,ESE,123,0.0,4.0,57,0.00,,---,0.00,VWS V14.01,2013-01-26 23:59:00,
2013-01-26 18:00:00,25.3,15.2,30.38,ESE,123,0.0,2.0,65,0.00,,---,0.00,VWS V14.01,2013-01-27 00:00:00,
2013-01-26 18:04:00,27.1,14.3,30.37,ESE,123,0.0,4.0,58,0.00,,---,0.00,VWS V14.01,2013-01-27 00:04:00,
2013-01-26 18:09:00,26.8,14.4,30.37,ESE,123,2.0,4.0,59,0.00,,---,0.00,VWS V14.01,2013-01-27 00:09:00,
2013-01-26 18:14:00,26.5,14.1,30.37,ESE,123,0.0,4.0,59,0.00,,---,0.00,VWS V14.01,2013-01-27 00:14:00,
2013-01-26 18:19:00,26.3,14.3,30.37,ESE,123,0.0,4.0,60,0.00,,---,0.00,VWS V14.01,2013-01-27 00:19:00,
2013-01-26 18:24:00,26.1,14.1,30.37,ESE,123,0.0,4.0,60,0.00,,---,0.00,VWS V14.01,2013-01-27 00:24:00,
2013-01-26 18:29:00,25.7,14.1,30.37,ESE,123,0.0,0.0,61,0.00,,---,0.00,VWS V14.01,2013-01-27 00:29:00,
2013-01-26 18:30:00,24.0,15.6,30.39,ESE,123,0.0,3.0,70,0.00,,---,0.00,VWS V14.01,2013-01-27 00:30:00,
2013-01-26 18:34:00,25.6,14.8,30.37,ESE,123,0.0,0.0,63,0.00,,---,0.00,VWS V14.01,2013-01-27 00:34:00,
2013-01-26 18:39:00,25.5,15.7,30.37,ESE,123,0.0,2.0,66,0.00,,---,0.00,VWS V14.01,2013-01-27 00:39:00,
2013-01-26 18:44:00,25.5,15.4,30.38,ESE,123,0.0,2.0,65,0.00,,---,0.00,VWS V14.01,2013-01-27 00:44:00,
2013-01-26 18:49:00,25.5,14.7,30.38,ESE,123,0.0,2.0,63,0.00,,---,0.00,VWS V14.01,2013-01-27 00:49:00,
2013-01-26 18:54:00,25.4,15.3,30.38,ESE,123,0.0,2.0,65,0.00,,---,0.00,VWS V14.01,2013-01-27 00:54:00,
2013-01-26 18:59:00,25.3,15.2,30.38,ESE,123,0.0,0.0,65,0.00,,---,0.00,VWS V14.01,2013-01-27 00:59:00,
2013-01-26 19:00:00,25.3,15.6,30.38,ESE,123,0.0,4.0,66,0.00,,---,0.00,VWS V14.01,2013-01-27 01:00:00,
2013-01-26 19:04:00,25.0,15.6,30.39,ESE,123,0.0,0.0,67,0.00,,---,0.00,VWS V14.01,2013-01-27 01:04:00,
2013-01-26 19:09:00,24.7,15.3,30.39,ESE,123,0.0,1.0,67,0.00,,---,0.00,VWS V14.01,2013-01-27 01:09:00,
2013-01-26 19:14:00,24.5,15.1,30.39,ESE,123,0.0,1.0,67,0.00,,---,0.00,VWS V14.01,2013-01-27 01:14:00,
2013-01-26 19:19:00,24.3,15.6,30.39,ESE,123,0.0,1.0,69,0.00,,---,0.00,VWS V14.01,2013-01-27 01:19:00,
2013-01-26 19:24:00,24.2,16.2,30.39,ESE,123,1.0,3.0,71,0.00,,---,0.00,VWS V14.01,2013-01-27 01:24:00,
2013-01-26 19:29:00,24.0,15.6,30.39,ESE,123,0.0,0.0,70,0.00,,---,0.00,VWS V14.01,2013-01-27 01:29:00,
2013-01-26 19:30:00,27.3,16.0,30.37,SE,125,2.0,7.0,62,0.00,,---,0.00,VWS V14.01,2013-01-27 01:30:00,
2013-01-26 19:34:00,24.0,15.6,30.38,ESE,123,0.0,4.0,70,0.00,,---,0.00,VWS V14.01,2013-01-27 01:34:00,
2013-01-26 19:39:00,23.9,15.9,30.38,ESE,123,0.0,4.0,71,0.00,,---,0.00,VWS V14.01,2013-01-27 01:39:00,
2013-01-26 19:44:00,24.0,16.0,30.38,ESE,123,0.0,4.0,71,0.00,,---,0.00,VWS V14.01,2013-01-27 01:44:00,
2013-01-26 19:49:00,24.2,15.5,30.38,ESE,123,2.0,4.0,69,0.00,,---,0.00,VWS V14.01,2013-01-27 01:49:00,
2013-01-26 19:54:00,24.8,15.4,30.38,ESE,123,0.0,4.0,67,0.00,,---,0.00,VWS V14.01,2013-01-27 01:54:00,
2013-01-26 19:59:00,25.4,15.6,30.38,ESE,123,0.0,0.0,66,0.00,,---,0.00,VWS V14.01,2013-01-27 01:59:00,
2013-01-26 20:00:00,28.0,16.3,30.37,SE,126,4.0,10.0,61,0.00,,---,0.00,VWS V14.01,2013-01-27 02:00:00,
2013-01-26 20:04:00,26.0,15.9,30.38,ESE,123,1.0,3.0,65,0.00,,---,0.00,VWS V14.01,2013-01-27 02:04:00,
2013-01-26 20:09:00,26.4,16.2,30.38,ESE,123,1.0,4.0,65,0.00,,---,0.00,VWS V14.01,2013-01-27 02:09:00,
2013-01-26 20:14:00,26.7,16.2,30.38,ESE,123,1.0,5.0,64,0.00,,---,0.00,VWS V14.01,2013-01-27 02:14:00,
2013-01-26 20:19:00,26.9,16.0,30.38,SE,130,1.0,6.0,63,0.00,,---,0.00,VWS V14.01,2013-01-27 02:19:00,
2013-01-26 20:24:00,27.1,16.2,30.37,SE,135,5.0,7.0,63,0.00,,---,0.00,VWS V14.01,2013-01-27 02:24:00,
2013-01-26 20:29:00,27.3,16.0,30.37,ESE,111,3.0,3.0,62,0.00,,---,0.00,VWS V14.01,2013-01-27 02:29:00,
2013-01-26 20:30:00,28.1,16.8,30.37,ESE,121,4.0,9.0,62,0.00,,---,0.00,VWS V14.01,2013-01-27 02:30:00,
2013-01-26 20:34:00,27.4,16.1,30.37,ESE,120,4.0,6.0,62,0.00,,---,0.00,VWS V14.01,2013-01-27 02:34:00,
2013-01-26 20:39:00,27.5,16.2,30.37,SE,136,8.0,8.0,62,0.00,,---,0.00,VWS V14.01,2013-01-27 02:39:00,
2013-01-26 20:44:00,27.6,16.3,30.37,SE,133,5.0,8.0,62,0.00,,---,0.00,VWS V14.01,2013-01-27 02:44:00,
2013-01-26 20:49:00,27.8,16.1,30.37,SE,129,1.0,8.0,61,0.00,,---,0.00,VWS V14.01,2013-01-27 02:49:00,
2013-01-26 20:54:00,27.9,16.6,30.37,SE,146,5.0,8.0,62,0.00,,---,0.00,VWS V14.01,2013-01-27 02:54:00,
2013-01-26 20:59:00,28.0,16.3,30.37,ESE,122,4.0,4.0,61,0.00,,---,0.00,VWS V14.01,2013-01-27 02:59:00,
2013-01-26 21:00:00,27.6,17.0,30.37,SE,136,6.0,12.0,64,0.00,,---,0.00,VWS V14.01,2013-01-27 03:00:00,
2013-01-26 21:04:00,28.1,16.4,30.37,ESE,115,4.0,9.0,61,0.00,,---,0.00,VWS V14.01,2013-01-27 03:04:00,
2013-01-26 21:09:00,28.1,16.4,30.37,SE,141,6.0,9.0,61,0.00,,---,0.00,VWS V14.01,2013-01-27 03:09:00,
2013-01-26 21:14:00,28.1,16.4,30.37,SE,138,4.0,9.0,61,0.00,,---,0.00,VWS V14.01,2013-01-27 03:14:00,
2013-01-26 21:19:00,28.1,16.8,30.37,SE,130,4.0,9.0,62,0.00,,---,0.00,VWS V14.01,2013-01-27 03:19:00,
2013-01-26 21:24:00,28.1,16.8,30.37,SE,125,6.0,9.0,62,0.00,,---,0.00,VWS V14.01,2013-01-27 03:24:00,
2013-01-26 21:29:00,28.1,16.8,30.37,ESE,122,7.0,7.0,62,0.00,,---,0.00,VWS V14.01,2013-01-27 03:29:00,
2013-01-26 21:30:00,27.1,16.9,30.37,SE,144,4.0,9.0,65,0.00,,---,0.00,VWS V14.01,2013-01-27 03:30:00,
2013-01-26 21:34:00,28.1,16.8,30.37,SE,138,5.0,12.0,62,0.00,,---,0.00,VWS V14.01,2013-01-27 03:34:00,
2013-01-26 21:39:00,28.1,17.1,30.37,SE,134,0.0,12.0,63,0.00,,---,0.00,VWS V14.01,2013-01-27 03:39:00,
2013-01-26 21:44:00,28.0,17.0,30.37,ESE,111,4.0,12.0,63,0.00,,---,0.00,VWS V14.01,2013-01-27 03:44:00,
2013-01-26 21:49:00,27.9,17.0,30.37,SSE,155,4.0,12.0,63,0.00,,---,0.00,VWS V14.01,2013-01-27 03:49:00,
2013-01-26 21:54:00,27.8,17.2,30.37,SE,132,6.0,12.0,64,0.00,,---,0.00,VWS V14.01,2013-01-27 03:54:00,
2013-01-26 21:59:00,27.6,17.0,30.38,SE,132,6.0,6.0,64,0.00,,---,0.00,VWS V14.01,2013-01-27 03:59:00,
2013-01-26 22:00:00,27.5,17.6,30.37,SE,144,8.0,11.0,66,0.00,,---,0.00,VWS V14.01,2013-01-27 04:00:00,
2013-01-26 22:04:00,27.4,17.2,30.38,ESE,109,3.0,8.0,65,0.00,,---,0.00,VWS V14.01,2013-01-27 04:04:00,
2013-01-26 22:09:00,27.3,17.1,30.37,ESE,117,4.0,8.0,65,0.00,,---,0.00,VWS V14.01,2013-01-27 04:09:00,
2013-01-26 22:14:00,27.3,17.1,30.37,SE,142,4.0,9.0,65,0.00,,---,0.00,VWS V14.01,2013-01-27 04:14:00,
2013-01-26 22:19:00,27.1,17.3,30.37,SSE,159,5.0,9.0,66,0.00,,---,0.00,VWS V14.01,2013-01-27 04:19:00,
2013-01-26 22:24:00,27.0,17.2,30.37,SE,128,3.0,9.0,66,0.00,,---,0.00,VWS V14.01,2013-01-27 04:24:00,
2013-01-26 22:29:00,27.1,16.9,30.37,SE,144,4.0,9.0,65,0.00,,---,0.00,VWS V14.01,2013-01-27 04:29:00,
2013-01-26 22:30:00,27.9,18.0,30.38,SE,139,9.0,13.0,66,0.00,,---,0.00,VWS V14.01,2013-01-27 04:30:00,
2013-01-26 22:34:00,27.2,17.0,30.37,SSE,154,5.0,9.0,65,0.00,,---,0.00,VWS V14.01,2013-01-27 04:34:00,
2013-01-26 22:39:00,27.3,17.1,30.37,ESE,113,7.0,9.0,65,0.00,,---,0.00,VWS V14.01,2013-01-27 04:39:00,
2013-01-26 22:44:00,27.3,17.5,30.37,SSE,150,8.0,11.0,66,0.00,,---,0.00,VWS V14.01,2013-01-27 04:44:00,
2013-01-26 22:49:00,27.3,17.5,30.38,SE,141,6.0,11.0,66,0.00,,---,0.00,VWS V14.01,2013-01-27 04:49:00,
2013-01-26 22:54:00,27.4,17.2,30.37,East,100,7.0,11.0,65,0.00,,---,0.00,VWS V14.01,2013-01-27 04:54:00,
2013-01-26 22:59:00,27.5,17.6,30.37,SE,128,7.0,11.0,66,0.00,,---,0.00,VWS V14.01,2013-01-27 04:59:00,
2013-01-26 23:00:00,27.5,17.6,30.37,SE,142,4.0,7.0,66,0.00,,---,0.00,VWS V14.01,2013-01-27 05:00:00,
2013-01-26 23:01:00,27.5,17.3,30.37,SE,146,5.0,7.0,65,0.00,,---,0.00,VWS V14.01,2013-01-27 05:01:00,
2013-01-26 23:02:00,27.5,17.6,30.37,SE,131,6.0,7.0,66,0.00,,---,0.00,VWS V14.01,2013-01-27 05:02:00,
2013-01-26 23:07:00,27.6,17.4,30.37,SE,132,7.0,11.0,65,0.00,,---,0.00,VWS V14.01,2013-01-27 05:07:00,
2013-01-26 23:12:00,27.7,17.5,30.37,SE,135,6.0,13.0,65,0.00,,---,0.00,VWS V14.01,2013-01-27 05:12:00,
2013-01-26 23:17:00,27.8,17.6,30.37,SE,130,6.0,13.0,65,0.00,,---,0.00,VWS V14.01,2013-01-27 05:17:00,
2013-01-26 23:22:00,27.8,17.9,30.37,ESE,107,5.0,13.0,66,0.00,,---,0.00,VWS V14.01,2013-01-27 05:22:00,
2013-01-26 23:27:00,27.8,17.9,30.37,ESE,121,2.0,13.0,66,0.00,,---,0.00,VWS V14.01,2013-01-27 05:27:00,
2013-01-26 23:30:00,27.7,18.5,30.37,SSE,151,6.0,14.0,68,0.00,,---,0.00,VWS V14.01,2013-01-27 05:30:00,
2013-01-26 23:32:00,27.9,17.7,30.38,SE,139,5.0,10.0,65,0.00,,---,0.00,VWS V14.01,2013-01-27 05:32:00,
2013-01-26 23:37:00,27.9,18.0,30.38,SE,133,7.0,10.0,66,0.00,,---,0.00,VWS V14.01,2013-01-27 05:37:00,
2013-01-26 23:42:00,28.0,18.1,30.38,SSE,159,2.0,14.0,66,0.00,,---,0.00,VWS V14.01,2013-01-27 05:42:00,
2013-01-26 23:47:00,28.0,18.1,30.38,SSE,151,6.0,14.0,66,0.00,,---,0.00,VWS V14.01,2013-01-27 05:47:00,
2013-01-26 23:52:00,28.0,18.1,30.38,South,169,7.0,14.0,66,0.00,,---,0.00,VWS V14.01,2013-01-27 05:52:00,
2013-01-26 23:57:00,28.0,18.1,30.38,SE,143,9.0,14.0,66,0.00,,---,0.00,VWS V14.01,2013-01-27 05:57:00,